Regional Weather Roundup
Issued by NWS

Home | Current Version | Previous Version | Graphics & Text | Print | Product List | Glossary Off
Versions: 1 2 3 4 5 6 7 8 9 10 11 12 13 14 15 16 17 18 19 20 21 22 23 24 25 26 27 28 29 30 31 32 33 34 35 36 37 38 39 40 41 42 43 44 45 46 47 48 49 50

000
ASUS45 KCYS 102310
RWRWY

WYOMING REGIONAL WEATHER ROUNDUP
NATIONAL WEATHER SERVICE CHEYENNE WY
500 PM MDT THU JUL 10 2014

NOTE:  "FAIR" INDICATES FEW OR NO CLOUDS BELOW 12,000 FEET
WITH NO SIGNIFICANT WEATHER AND/OR OBSTRUCTIONS TO VISIBILITY.

WYZ001-110000-
YELLOWSTONE NATIONAL PARK

CITY           SKY/WX    TMP DP  RH WIND       PRES   REMARKS
LK YELLOWSTONE   N/A     70  42  36 VRB5      30.21F
W YELLOWSTONE  NOT AVBL

$$
WYZ002>013-054>058-071-098>099-110000-
NORTHERN WYOMING

CITY           SKY/WX    TMP DP  RH WIND       PRES   REMARKS
JACKSON        NOT AVBL
CODY           PTSUNNY  N/A N/A N/A E6        29.98F
GREYBULL       PTSUNNY   87  47  24 CALM      29.89F
WORLAND        CLOUDY    81  57  43 SW5       29.93R
SHERIDAN       PTSUNNY   82  53  36 SE6       29.91F
BUFFALO        PTSUNNY   81  53  37 N7        30.00S
GILLETTE       PTSUNNY   85  54  34 NW7       29.93F
HULETT         FAIR      81  55  41 MISG      29.94
NEWCASTLE      FAIR      82  50  32 MISG      29.92

$$
WYZ014>020-022>026-101>103-110000-
CENTRAL WYOMING

CITY           SKY/WX    TMP DP  RH WIND       PRES   REMARKS
BIG PINEY      MOSUNNY   80  45  28 NE10G20   30.15F
PINEDALE       CLEAR     73  43  33 NW14      30.17F
DUBOIS         FAIR      73  43  33 NW13G22   30.15F
LANDER         PTSUNNY   87  47  24 MISG      30.00F
RIVERTON       PTSUNNY   83  50  31 NW21      30.02S
CASPER         LGT RAIN  70  55  59 NE7       30.02F
DOUGLAS        LGT RAIN  69  60  73 NE14      30.02R

$$
WYZ021-027>030-104>119-110000-
SOUTHERN WYOMING

CITY           SKY/WX    TMP DP  RH WIND       PRES   REMARKS
EVANSTON       CLOUDY    76  50  40 NE10      30.14F
KEMMERER       PTCLDY    75  43  31 W9        30.17S
FORT BRIDGER   CLOUDY    68  56  64 SE17      30.19S THUNDER
ROCK SPRINGS   LGT RAIN  67  55  65 S10       30.13R
DIXON          FAIR      80  47  31 N17       30.11S
RAWLINS        CLOUDY    80  47  31 S16       30.10F
SARATOGA       MOCLDY    81  45  28 W12       30.13S
LARAMIE        PTSUNNY   77  46  33 S20G28    30.13S
CHEYENNE       PTSUNNY   83  43  24 SW16      30.05F
TORRINGTON     CLOUDY    73  63  70 S24G44    29.90F

$$



USA.gov is the U.S. government's official web portal to all federal, state and local government web resources and services.